Time,TemperatureF,DewpointF,PressureIn,WindDirection,WindDirectionDegrees,WindSpeedMPH,WindSpeedGustMPH,Humidity,HourlyPrecipIn,Conditions,Clouds,dailyrainin,SoftwareType,DateUTC
2013-08-12 00:02:00,84.0,78.0,30.07,ENE,77,0.0,0.0,83,0.00,,,0.00,,2013-08-12 04:02:00,
2013-08-12 00:12:00,83.0,77.0,30.06,ENE,68,0.0,0.0,83,0.00,,,0.00,,2013-08-12 04:12:00,
2013-08-12 00:22:00,83.0,77.0,30.06,ENE,63,0.0,0.0,83,0.00,,,0.00,,2013-08-12 04:22:00,
2013-08-12 00:33:00,83.0,77.0,30.06,ENE,67,0.0,0.0,83,0.00,,,0.00,,2013-08-12 04:33:00,
2013-08-12 00:43:00,83.0,77.0,30.06,ENE,72,0.0,0.0,83,0.00,,,0.00,,2013-08-12 04:43:00,
2013-08-12 00:52:00,83.0,77.0,30.06,ENE,57,0.0,0.0,83,0.00,,,0.00,,2013-08-12 04:52:00,
2013-08-12 01:02:00,83.0,78.0,30.06,East,84,0.0,0.0,84,0.00,,,0.00,,2013-08-12 05:02:00,
2013-08-12 01:11:00,83.0,78.0,30.06,NE,48,0.0,0.0,84,0.00,,,0.00,,2013-08-12 05:11:00,
2013-08-12 01:22:00,83.0,77.0,30.06,East,79,0.0,0.0,83,0.00,,,0.00,,2013-08-12 05:22:00,
2013-08-12 01:32:00,83.0,77.0,30.06,ENE,59,0.0,0.0,83,0.00,,,0.00,,2013-08-12 05:32:00,
2013-08-12 01:43:00,83.0,77.0,30.06,ENE,75,0.0,0.0,82,0.00,,,0.00,,2013-08-12 05:43:00,
2013-08-12 01:52:00,83.0,77.0,30.06,East,79,0.0,0.0,82,0.00,,,0.00,,2013-08-12 05:52:00,
2013-08-12 02:02:00,83.0,77.0,30.06,NE,56,0.0,0.0,82,0.00,,,0.00,,2013-08-12 06:02:00,
2013-08-12 02:11:00,83.0,77.0,30.06,ENE,66,0.0,0.0,82,0.00,,,0.00,,2013-08-12 06:11:00,
2013-08-12 02:22:00,83.0,77.0,30.05,NE,43,0.0,0.0,81,0.00,,,0.00,,2013-08-12 06:22:00,
2013-08-12 02:32:00,83.0,77.0,30.06,East,90,0.0,0.0,81,0.00,,,0.00,,2013-08-12 06:32:00,
2013-08-12 02:42:00,83.0,77.0,30.06,NE,51,0.0,0.0,81,0.00,,,0.00,,2013-08-12 06:42:00,
2013-08-12 02:52:00,83.0,77.0,30.06,NE,51,0.0,0.0,81,0.00,,,0.00,,2013-08-12 06:52:00,
2013-08-12 03:01:00,83.0,77.0,30.04,ENE,66,0.0,0.0,81,0.00,,,0.00,,2013-08-12 07:01:00,
2013-08-12 03:12:00,83.0,77.0,30.04,ENE,68,0.0,0.0,81,0.00,,,0.00,,2013-08-12 07:12:00,
2013-08-12 03:22:00,83.0,77.0,30.04,ENE,62,0.0,0.0,81,0.00,,,0.00,,2013-08-12 07:22:00,
2013-08-12 03:33:00,83.0,77.0,30.03,ENE,76,0.0,0.0,81,0.00,,,0.00,,2013-08-12 07:33:00,
2013-08-12 03:43:00,83.0,77.0,30.03,ENE,75,0.0,0.0,82,0.00,,,0.00,,2013-08-12 07:43:00,
2013-08-12 03:52:00,83.0,77.0,30.03,NE,40,0.0,0.0,82,0.00,,,0.00,,2013-08-12 07:52:00,
2013-08-12 04:02:00,83.0,77.0,30.03,East,98,0.0,0.0,82,0.00,,,0.00,,2013-08-12 08:02:00,
2013-08-12 04:11:00,83.0,77.0,30.02,SSE,158,0.0,0.0,81,0.00,,,0.00,,2013-08-12 08:11:00,
2013-08-12 04:22:00,83.0,77.0,30.02,NE,36,0.0,0.0,82,0.00,,,0.00,,2013-08-12 08:22:00,
2013-08-12 04:33:00,82.0,76.0,30.02,East,81,0.0,0.0,82,0.00,,,0.00,,2013-08-12 08:33:00,
2013-08-12 04:43:00,82.0,76.0,30.01,East,82,0.0,0.0,82,0.00,,,0.00,,2013-08-12 08:43:00,
2013-08-12 04:53:00,82.0,76.0,30.02,NE,48,0.0,0.0,82,0.00,,,0.00,,2013-08-12 08:53:00,
2013-08-12 05:02:00,82.0,76.0,30.02,NE,40,0.0,0.0,82,0.00,,,0.00,,2013-08-12 09:02:00,
2013-08-12 05:11:00,82.0,76.0,30.02,East,80,0.0,0.0,82,0.00,,,0.00,,2013-08-12 09:11:00,
2013-08-12 05:22:00,82.0,76.0,30.02,ENE,65,0.0,0.0,81,0.00,,,0.00,,2013-08-12 09:22:00,
2013-08-12 05:32:00,82.0,76.0,30.02,East,90,0.0,0.0,81,0.00,,,0.00,,2013-08-12 09:32:00,
2013-08-12 05:43:00,82.0,76.0,30.02,ENE,66,0.0,0.0,81,0.00,,,0.00,,2013-08-12 09:43:00,
2013-08-12 05:53:00,83.0,77.0,30.02,East,96,0.0,0.0,83,0.00,,,0.00,,2013-08-12 09:53:00,
2013-08-12 06:02:00,83.0,78.0,30.03,NE,40,0.0,0.0,84,0.00,,,0.00,,2013-08-12 10:02:00,
2013-08-12 06:12:00,83.0,78.0,30.03,ENE,66,0.0,0.0,84,0.00,,,0.00,,2013-08-12 10:12:00,
2013-08-12 06:22:00,82.0,77.0,30.03,ENE,71,0.0,0.0,85,0.01,,,0.01,,2013-08-12 10:22:00,
2013-08-12 06:32:00,82.0,77.0,30.03,ENE,71,0.0,0.0,85,0.01,,,0.01,,2013-08-12 10:32:00,
2013-08-12 06:43:00,81.0,76.0,30.03,NE,40,0.0,0.0,86,0.01,,,0.01,,2013-08-12 10:43:00,
2013-08-12 06:52:00,81.0,77.0,30.03,NNE,12,0.0,0.0,87,0.01,,,0.01,,2013-08-12 10:52:00,
2013-08-12 07:02:00,81.0,77.0,30.03,NE,43,0.0,0.0,88,0.01,,,0.01,,2013-08-12 11:02:00,
2013-08-12 07:22:00,81.0,78.0,30.02,NE,34,0.0,0.0,90,0.00,,,0.01,,2013-08-12 11:22:00,
2013-08-12 07:32:00,81.0,78.0,30.02,NE,36,0.0,0.0,90,0.00,,,0.01,,2013-08-12 11:32:00,
2013-08-12 07:42:00,81.0,78.0,30.03,NNE,21,0.0,0.0,90,0.00,,,0.01,,2013-08-12 11:42:00,
2013-08-12 07:52:00,81.0,78.0,30.02,NNE,28,0.0,0.0,91,0.00,,,0.01,,2013-08-12 11:52:00,
2013-08-12 08:02:00,81.0,78.0,30.03,ENE,58,0.0,0.0,91,0.00,,,0.01,,2013-08-12 12:02:00,
2013-08-12 08:11:00,81.0,78.0,30.03,NNE,16,0.0,0.0,91,0.00,,,0.01,,2013-08-12 12:11:00,
2013-08-12 08:22:00,81.0,78.0,30.03,East,84,0.0,0.0,91,0.00,,,0.01,,2013-08-12 12:22:00,
2013-08-12 08:32:00,81.0,78.0,30.03,ENE,59,0.0,0.0,90,0.00,,,0.01,,2013-08-12 12:32:00,
2013-08-12 08:43:00,82.0,79.0,30.03,NE,34,0.0,0.0,90,0.00,,,0.01,,2013-08-12 12:43:00,
2013-08-12 08:52:00,82.0,79.0,30.04,East,98,0.0,0.0,90,0.00,,,0.01,,2013-08-12 12:52:00,
2013-08-12 09:02:00,82.0,78.0,30.04,ENE,77,0.0,0.0,88,0.00,,,0.01,,2013-08-12 13:02:00,
2013-08-12 09:11:00,83.0,79.0,30.04,ENE,57,0.0,0.0,87,0.00,,,0.01,,2013-08-12 13:11:00,
2013-08-12 09:22:00,83.0,79.0,30.04,ENE,57,0.0,0.0,87,0.00,,,0.01,,2013-08-12 13:22:00,
2013-08-12 09:33:00,83.0,78.0,30.04,NE,38,0.0,0.0,85,0.00,,,0.01,,2013-08-12 13:33:00,
2013-08-12 09:43:00,84.0,79.0,30.04,NE,34,0.0,0.0,84,0.00,,,0.01,,2013-08-12 13:43:00,
2013-08-12 09:53:00,84.0,78.0,30.03,NNE,27,0.0,0.0,83,0.00,,,0.01,,2013-08-12 13:53:00,
2013-08-12 10:02:00,85.0,79.0,30.03,NNE,25,0.0,0.0,82,0.00,,,0.01,,2013-08-12 14:02:00,
2013-08-12 10:11:00,85.0,78.0,30.04,NE,50,0.0,0.0,81,0.00,,,0.01,,2013-08-12 14:11:00,
2013-08-12 10:22:00,85.0,78.0,30.04,NE,40,0.0,0.0,81,0.00,,,0.01,,2013-08-12 14:22:00,
2013-08-12 10:32:00,85.0,78.0,30.04,ENE,69,0.0,0.0,81,0.00,,,0.01,,2013-08-12 14:32:00,
2013-08-12 10:42:00,86.0,79.0,30.04,East,97,0.0,0.0,79,0.00,,,0.01,,2013-08-12 14:42:00,
2013-08-12 10:52:00,86.0,79.0,30.04,NE,40,0.0,0.0,79,0.00,,,0.01,,2013-08-12 14:52:00,
2013-08-12 11:11:00,87.0,78.0,30.04,NNE,28,0.0,0.0,76,0.00,,,0.01,,2013-08-12 15:11:00,
2013-08-12 11:22:00,87.0,78.0,30.04,SSE,158,0.0,0.0,75,0.00,,,0.01,,2013-08-12 15:22:00,
2013-08-12 11:33:00,87.0,78.0,30.05,NE,42,0.0,0.0,74,0.00,,,0.01,,2013-08-12 15:33:00,
2013-08-12 11:43:00,88.0,79.0,30.05,NE,46,0.0,0.0,74,0.00,,,0.01,,2013-08-12 15:43:00,
2013-08-12 11:52:00,88.0,79.0,30.05,SSE,158,0.0,0.0,74,0.00,,,0.01,,2013-08-12 15:52:00,
2013-08-12 12:11:00,88.0,79.0,30.04,East,91,0.0,0.0,74,0.00,,,0.01,,2013-08-12 16:11:00,
2013-08-12 12:22:00,88.0,78.0,30.04,NE,50,0.0,0.0,72,0.00,,,0.01,,2013-08-12 16:22:00,
2013-08-12 12:33:00,89.0,79.0,30.03,ENE,63,0.0,0.0,73,0.00,,,0.01,,2013-08-12 16:33:00,
2013-08-12 12:43:00,88.0,77.0,30.03,East,85,0.0,0.0,71,0.00,,,0.01,,2013-08-12 16:43:00,
2013-08-12 12:53:00,89.0,79.0,30.03,ESE,105,0.0,0.0,72,0.00,,,0.01,,2013-08-12 16:53:00,
2013-08-12 14:11:00,91.0,78.0,30.02,ENE,60,0.0,0.0,66,0.00,,,0.01,,2013-08-12 18:11:00,
2013-08-12 14:24:00,90.0,79.0,30.02,ENE,76,0.0,0.0,70,0.00,,,0.01,,2013-08-12 18:24:00,
2013-08-12 14:32:00,89.0,78.0,30.02,ENE,76,0.0,0.0,71,0.00,,,0.01,,2013-08-12 18:32:00,
2013-08-12 15:02:00,89.0,77.0,30.01,ENE,65,0.0,0.0,69,0.00,,,0.01,,2013-08-12 19:02:00,
2013-08-12 15:43:00,91.0,80.0,30.00,East,90,0.0,0.0,70,0.00,,,0.01,,2013-08-12 19:43:00,
2013-08-12 15:52:00,91.0,80.0,29.99,SSE,158,0.0,0.0,70,0.00,,,0.01,,2013-08-12 19:52:00,
2013-08-12 16:42:00,91.0,78.0,29.98,ESE,109,0.0,0.0,67,0.00,,,0.01,,2013-08-12 20:42:00,
2013-08-12 16:52:00,91.0,79.0,29.98,SE,144,0.0,0.0,69,0.00,,,0.01,,2013-08-12 20:52:00,
2013-08-12 17:01:00,91.0,79.0,29.98,East,96,0.0,0.0,69,0.00,,,0.01,,2013-08-12 21:01:00,
2013-08-12 17:22:00,88.0,78.0,29.98,East,82,0.0,0.0,73,0.00,,,0.01,,2013-08-12 21:22:00,
2013-08-12 17:32:00,88.0,78.0,29.98,East,95,0.0,0.0,73,0.00,,,0.01,,2013-08-12 21:32:00,
2013-08-12 17:43:00,88.0,79.0,29.99,ESE,106,0.0,0.0,75,0.00,,,0.01,,2013-08-12 21:43:00,
2013-08-12 17:52:00,88.0,79.0,29.99,East,90,0.0,0.0,74,0.00,,,0.01,,2013-08-12 21:52:00,
2013-08-12 18:11:00,88.0,78.0,29.98,ENE,71,0.0,0.0,73,0.00,,,0.01,,2013-08-12 22:11:00,
2013-08-12 18:22:00,88.0,78.0,29.98,ESE,102,0.0,0.0,73,0.00,,,0.01,,2013-08-12 22:22:00,
2013-08-12 18:32:00,88.0,78.0,29.98,SE,129,0.0,0.0,73,0.00,,,0.01,,2013-08-12 22:32:00,
2013-08-12 18:43:00,87.0,78.0,29.98,ESE,105,0.0,0.0,75,0.00,,,0.01,,2013-08-12 22:43:00,
2013-08-12 18:53:00,87.0,77.0,29.98,East,85,0.0,0.0,73,0.00,,,0.01,,2013-08-12 22:53:00,
2013-08-12 19:02:00,86.0,77.0,29.98,SE,127,0.0,0.0,74,0.00,,,0.01,,2013-08-12 23:02:00,
2013-08-12 19:11:00,86.0,77.0,29.98,East,94,0.0,0.0,74,0.00,,,0.01,,2013-08-12 23:11:00,
2013-08-12 19:22:00,86.0,77.0,29.98,ENE,70,0.0,0.0,75,0.00,,,0.01,,2013-08-12 23:22:00,
2013-08-12 19:54:00,85.0,76.0,29.97,ESE,117,0.0,0.0,75,0.00,,,0.01,,2013-08-12 23:54:00,
2013-08-12 20:12:00,85.0,77.0,29.97,ENE,63,0.0,0.0,76,0.00,,,0.01,,2013-08-13 00:12:00,
2013-08-12 20:24:00,85.0,77.0,29.97,East,98,0.0,0.0,77,0.00,,,0.01,,2013-08-13 00:24:00,
2013-08-12 20:45:00,84.0,76.0,29.97,ENE,70,0.0,0.0,77,0.00,,,0.01,,2013-08-13 00:45:00,
2013-08-12 20:54:00,84.0,76.0,29.98,East,84,0.0,0.0,77,0.00,,,0.01,,2013-08-13 00:54:00,
2013-08-12 21:13:00,84.0,76.0,29.98,ENE,73,0.0,0.0,77,0.00,,,0.01,,2013-08-13 01:13:00,
2013-08-12 21:23:00,84.0,76.0,29.98,ENE,71,0.0,0.0,78,0.00,,,0.01,,2013-08-13 01:23:00,
2013-08-12 21:42:00,84.0,77.0,29.98,East,91,0.0,0.0,79,0.00,,,0.01,,2013-08-13 01:42:00,
2013-08-12 21:55:00,84.0,77.0,29.99,NE,54,0.0,0.0,80,0.00,,,0.01,,2013-08-13 01:55:00,
2013-08-12 22:22:00,84.0,78.0,30.00,East,86,0.0,0.0,81,0.00,,,0.01,,2013-08-13 02:22:00,
2013-08-12 22:43:00,84.0,78.0,30.00,East,91,0.0,0.0,82,0.00,,,0.01,,2013-08-13 02:43:00,
2013-08-12 22:52:00,83.0,77.0,30.00,ESE,117,0.0,0.0,82,0.00,,,0.01,,2013-08-13 02:52:00,
2013-08-12 23:22:00,83.0,77.0,30.01,ESE,109,0.0,0.0,82,0.00,,,0.01,,2013-08-13 03:22:00,
2013-08-12 23:33:00,83.0,77.0,30.01,ESE,109,0.0,0.0,82,0.00,,,0.01,,2013-08-13 03:33:00,
2013-08-12 23:54:00,83.0,77.0,30.01,ENE,69,0.0,0.0,82,0.00,,,0.01,,2013-08-13 03:54:00,